Regional Weather Roundup
Issued by NWS Wilmington, NC

Current Version | Previous Version | Text Only | Print | Product List | Glossary On
Versions: 1 2 3 4 5 6 7 8 9 10 11 12 13 14 15 16 17 18 19 20 21 22 23 24 25 26 27 28 29 30 31 32 33 34 35 36 37 38 39 40 41 42 43 44 45 46 47 48 49 50
000
ASUS42 KILM 090113
RWRILM
RWRILM
REGIONAL HOURLY WEATHER ROUNDUP
NATIONAL WEATHER SERVICE WILMINGTON NC
800 PM EST MON FEB 08 2016

NOTE: "FAIR" INDICATES FEW OR NO CLOUDS BELOW 12,000 FEET WITH NO
SIGNIFICANT WEATHER AND/OR OBSTRUCTIONS TO VISIBILITY.

...............WFO WILMINGTON COUNTY WARNING AREA...............

......COASTAL NC AND SC COUNTIES......

CITY           SKY/WX    TMP DP  RH WIND       PRES   REMARKS
WILMINGTON     CLOUDY    50  39  66 NW16      29.73R
N MYRTLE BEACH LGT RAIN  47  43  86 NW7       29.76R
MYRTLE BEACH   RAIN      46  39  76 NW10      29.78R FOG

......INLAND NC AND SC COUNTIES.......

CITY           SKY/WX    TMP DP  RH WIND       PRES   REMARKS
LUMBERTON      MOCLDY    44  39  82 SW6       29.70F
ELIZABETHTOWN  LGT RAIN  44  41  91 SW6       29.72F
WHITEVILLE     RAIN      45  41  86 SW7       29.72F
FLORENCE       PTCLDY    42  40  92 SW7       29.72R
DARLINGTON     CLEAR     43  36  75 SW7       29.71S
KINGSTREE      CLOUDY    45  41  87 CALM      29.74R
HARTSVILLE     FAIR      37  37 100 SW3       29.70R
BENNETTSVILLE  FAIR      43  41  93 S5        29.70S
CONWAY         DRIZZLE   43  43 100 CALM      29.75F
GEORGETOWN     LGT RAIN  45  41  87 W13G21    29.78S
MARION         FAIR      45  41  87 SW5       29.72R

....................REST OF NORTH CAROLINA......................

.........EASTERN NC.........

CITY           SKY/WX    TMP DP  RH WIND       PRES   REMARKS
CAPE HATTERAS  MOCLDY    42  35  76 E5        29.71F
JACKSONVILLE   CLOUDY    46  34  61 W13G25    29.72R
MOREHEAD CITY  PTCLDY    52  39  61 SW14      29.69S
KENANSVILLE    CLOUDY    43  39  87 W10G18    29.75R FOG
NEW BERN       MOCLDY    42  36  79 CALM      29.69F
ELIZABETH CITY CLOUDY    43  37  79 E12       29.71F

.........CENTRAL NC.........

CITY           SKY/WX    TMP DP  RH WIND       PRES   REMARKS
RALEIGH DURHAM MOCLDY    41  38  89 S3        29.68S
ROCKY MOUNT    LGT RAIN  43  41  93 SW3       29.72R FOG
ROANOKE RAPIDS NOT AVBL
FAYETTEVILLE   CLOUDY    42  39  89 S3        29.69S
HOFFMAN        NOT AVBL

.........WESTERN NC.........

CITY           SKY/WX    TMP DP  RH WIND       PRES   REMARKS
CHARLOTTE      MOCLDY    41  31  67 W6        29.67R
GREENSBORO     PTCLDY    37  34  89 W3        29.65S
HICKORY        NOT AVBL
BOONE          NOT AVBL
ASHEVILLE      NOT AVBL

.....................REST OF SOUTH CAROLINA.....................

.........EASTERN SC.........

CITY           SKY/WX    TMP DP  RH WIND       PRES   REMARKS
CHARLESTON     LGT RAIN  47  42  83 SW9       29.74F
BEAUFORT MCAS  LGT RAIN  47  42  83 SW12      29.76F
HILTON HEAD    LGT RAIN  48  43  81 W12G23    29.79R

.........CENTRAL SC.........

CITY           SKY/WX    TMP DP  RH WIND       PRES   REMARKS
COLUMBIA       CLEAR     44  35  70 CALM      29.70F
ORANGEBURG     PTCLDY    44  41  89 SW5       29.73S
SUMTER SHAW    PTCLDY    43  39  84 SW8       29.70R

.........WESTERN SC.........

CITY           SKY/WX    TMP DP  RH WIND       PRES   REMARKS
GREENVILLE     NOT AVBL
ROCK HILL      CLEAR     39  32  76 SW7       29.67S WCI  34
ANDERSON       CLEAR     45  24  43 NW21G28   29.72R
CLEMSON        NOT AVBL
GREENWOOD      CLEAR     45  23  42 W8        29.72S


...................COASTAL AND OFFSHORE REPORTS..................

................LOCAL PIERS AND NC RESERVE................


STATION/POSITION TIME  SKY/WX   TEMP    WIND        PRES    VSBY
                                AIR SEA DIR/SP/G
                 (UTC)          (F)     (DEG/KT/KT) (MB)    (MI)
JOHNY MRCER PIER 0000            53 54  220/ 18/ 20 1003.9F
NC RESRV MASNBRO NOT AVBL
OCEAN CREST PIER NOT AVBL
SPRINGMAID  PIER 0000            48 51  250/ 10/ 15 1007.1R


................COASTAL AND OFFSHORE BUOYS................


STATION/POSITION TIME  SKY/WX   TEMP    WIND        PRES    VSBY
                                AIR SEA DIR/SP/G
                 (UTC)          (F)     (DEG/KT/KT) (MB)    (MI)
DIMNDSHOAL 41025 0050            58 74  220/ 14/ 19 1005.3F
WVE H/P(F/S)= 11/14 SWL H/P/D(F/S/D)= 10/ 50/14

CAPE LOOKOUT     NOT AVBL
ONSLOW BAY 41036 NOT AVBL
ONSLOW BAY 41064 0008            58 62              1005.2S
ONSLOW BAY 41159 0025               62                N/A
WVE H/P(F/S)=  7/ 6 SWL H/P/D(F/S/D)=  3/ 90/15

5SE WRITBC 41038 0008            54 52  230/ 17/ 25 1005.2
MASNBO INL 41110 0006               52                N/A
WVE H/P(F/S)=  4/ 4 SWL H/P/D(F/S/D)=  2/110/14

WILM HARBR 41108 0026               53                N/A
WVE H/P(F/S)=  7/ 6 SWL H/P/D(F/S/D)=  2/140/14

27SE WRITB 41037 0008            57 61  260/ 21/ 31 1004.9F
FRYING PAN 41013 0100            60 62  230/ 25/ 31 1005.8S
SUNST NRSH 41024 NOT AVBL
CAPRS NRSH 41029 0008            53     290/ 25/ 35 1006.7R
EDISTO     41004 0050            61 66  230/ 25/ 31 1005.3S
WVE H/P(F/S)=  9/ 7 SWL H/P/D(F/S/D)=  3/16



..........OFFSHORE BUOYS BEYOND 100 NM OFFSHORE...........
.....IN A TRIANGLE---HAT TO BERMUDA TO BAHAMAS TO HAT.....


STATION/POSITION TIME  SKY/WX   TEMP    WIND        PRES    VSBY
                                AIR SEA DIR/SP/G
                 (UTC)          (F)     (DEG/KT/KT) (MB)    (MI)
150E HAT   41001 0000            59 71  250/ 19/ 25 1008.0R
W BERMUDA  41048 0050            65 70  250/ 21/ 27 1010.6R
WVE H/P(F/S)= 14/11 SWL H/P/D(F/S/D)= 11/290/11

ATLANTIC S 41049 0050            74 75  240/  4/  6 1017.3R
WVE H/P(F/S)= 11/14 SWL H/P/D(F/S/D)= 11/300/14

E BAHAMAS  41046 0050            76 79  340/  6/  8 1017.9R
WVE H/P(F/S)= 10/11 SWL H/P/D(F/S/D)= 10/300/11

NE BAHAMAS 41047 0050            70 75  240/ 12/ 16 1015.2S
WVE H/P(F/S)= 18/14 SWL H/P/D(F/S/D)= 18/310/14

120E CANVRL41010 0020            66 72              1011.7F

END



USA.gov is the U.S. government's official web portal to all federal, state and local government web resources and services.